Weather in Kovalivka

Ukraine / Vinnytsia Region     49°01′07″N   28°53′20″E
temp.,
°C
wind,
m/s
gust,
m/s
humid.,
%
clouds,
%
prec.,
mm/h
press.,
hPa
HPBL,
m
24 may, tue
tue2400:00+8nnw22857 0.0 101311
03:00+7nnw33862 0.0 101324
06:00+6n33820 0.0 101437
09:00+12nne34570 0.0 1014432
12:00+16nne34425 0.0 10151637
15:00+18nne33405 0.0 10141811
18:00+17ene32435 0.0 10151652
21:00+11e22600 0.0 101616
25 may, wed
wed2500:00+10se115959 0.0 101710
03:00+9se2262100 0.0 101811
06:00+8sse226844 0.0 101914
09:00+15sse34535 0.0 1019399
12:00+19sse4441100 0.0 10181441
15:00+20sse4542100 0.0 10171945
18:00+18s3665100 0.0 1017162
21:00+16se3773100 0.1 1016145
26 may, thu
thu2600:00+16s51266100 0.0 1016405
03:00+15s61259100 0.0 1015514
06:00+11ssw4896100 2.9 1015299
09:00+14wnw5119399 3.4 1015680
12:00+18nw796317 0.1 10161352
15:00+21nw794833 0.1 10162313
18:00+18wnw4764100 0.0 1017951
21:00+14wnw34817 0.1 101751
27 may, fri
fri2700:00+12wsw478795 0.0 101892
03:00+15wsw4116941 0.0 1018301
06:00+12w410824 0.0 1017215
09:00+18wnw58634 0.0 1017834
12:00+21w69515 0.0 10161670
15:00+20wsw3760100 0.0 1013352
18:00+22sw475797 0.0 1011834
21:00+18ssw41069100 0.0 1009235
28 may, sat
sat2800:00+15w4118726 0.6 1009257
03:00+10nnw3109264 0.6 1011318
06:00+10wnw388679 0.0 1011403
09:00+12nw4674100 0.1 1012499
12:00+12w4570100 0.1 1013675
15:00+15wnw5656100 0.1 10121158
18:00+15w4659100 0.0 1013935
21:00+11w367193 0.0 1014110